DMSP 5D-2 F13 DEB

Satellite information

Favourite Embed

Satellite Type and Status

DEBRISIN ORBIT

Key statistics

Satellite DMSP 5D-2 F13 DEB at a glance.

Uptime

11063

Days in orbit

Revolutions

≈ 14.3

Per day

Orbit

SSO

Sun Synchronous Orbit

Inclination

98.9

Latest

Satellite identification and parameters

Extended collection of information and parameters for DMSP 5D-2 F13 DEB.

Object identification

Identified? True

Debris? True

Object name: DMSP 5D-2 F13 DEB

International designator: 1995-015EX

Object number (NORAD): 40600

Object ID (CCSDS): 40600

Country: UNITED STATES OF AMERICA (US)

Current information (Y/N): Y

RCS size: SMALL

Orbital parameters

Period: 100.587 minutes

Inclination: 98.8583 deg

SMA: 7164.552 km

Apoapsis: 810.982 km

Periapsis: 761.853 km

RAAN: 221.0376 deg

Eccentricy: 0.0034286

Argument of periapsis: 323.1843 deg

Mean anomaly: 36.6985 deg

Mean motion: 14.31591766 rev/day

Mean motion (dot): 0.00004783 rev/day2

B* drag term: 0.0018018 1/REarth

Two-line elements (TLE)

Creation date: July 6, 2025, 6:05 p.m.

Reference frame: TEME

Reference center: EARTH

Epoch: July 6, 2025, 1:08 p.m. UTC

TLE line 0: 0 DMSP 5D-2 F13 DEB

TLE line 1: 1 40600U 95015EX 25187.54791307 .00004783 00000-0 18018-2 0 9991

TLE line 2: 2 40600 98.8583 221.0376 0034286 323.1843 36.6985 14.31591766526330

Live tracking on map

Real-time ground track for satellite DMSP 5D-2 F13 DEB.

In-orbit conjunctions

A list of the most updated potential collisions computed for object DMSP 5D-2 F13 DEB.

Target Orbit TCA Probability of collision Miss distance Type
TIROS 10 SSO 2025-03-03 04:49:35 0.0001000835 649.0 (m) PAYLOAD
DMSP 5D-2 F8 DEB SSO 2024-09-12 22:47:13 0.0001807758 510.0 (m) DEBRIS
METEOR 2-8 DEB LEO 2024-07-27 06:24:35 0.0002122937 76.0 (m) DEBRIS

Associated space launch

Military meteorological satellite

DMSP 5D-2 F13 DEB was lifted into orbit during the mission ‘Atlas E | DMSP-5D2 F13’, on board a Atlas E space rocket.

The launch took place on March 24, 1995, 2:05 p.m. from Space Launch Complex 3W.

For more information about the launch, click the button.

Launch to space Atlas E | DMSP-5D2 F13
Atlas E | DMSP-5D2 F13

Agency: N/A

Status: Launch Successful

Launch date: March 24, 1995, 2:05 p.m. UTC

Rocket: Atlas E

Launch pad: Space Launch Complex 3W

Location: Vandenberg SFB, CA, USA

...

Latest news about this satellite

There are no fresh news available about this satellite. Check back as we update our databases every day.


Newsletter sign-up

Weekly statistics, charts and insights to help you stay on top of the space industry.